| time (UTC) | temp F | wind direction | speed MPH | gust MPH | rain 1hr in | rain 24hr in | rain mn in | humidity % | barometer mb |
| 20260903041230 | 60 | 202 | 0.0 | 0.0 | 0.00 | 0.00 | 0.00 | 90 | 1021.5 |
| 20260903040230 | 60 | 202 | 0.0 | 0.0 | 0.00 | 0.00 | 0.00 | 90 | 1021.8 |
| 20260903035234 | 60 | 202 | 0.0 | 0.0 | 0.00 | 0.00 | 0.00 | 90 | 1021.8 |
| 20260903035135 | 60 | 202 | 0.0 | 0.0 | 0.00 | 0.00 | 0.00 | 89 | 1021.9 |
| 20260903032134 | 61 | 202 | 0.0 | 0.0 | 0.00 | 0.00 | 0.00 | 89 | 1022.0 |
| 20260903031152 | 61 | 202 | 0.0 | 0.0 | 0.00 | 0.00 | 0.00 | 87 | 1022.3 |
| 20260903030133 | 61 | 202 | 0.0 | 0.0 | 0.00 | 0.00 | 0.00 | 88 | 1022.4 |
| 20260903024150 | 61 | 202 | 0.0 | 0.0 | 0.00 | 0.00 | 0.00 | 86 | 1022.5 |
| 20260903022136 | 61 | 202 | 0.0 | 0.0 | 0.00 | 0.00 | 0.00 | 86 | 1022.6 |
| 20260903021134 | 61 | 202 | 0.0 | 0.0 | 0.00 | 0.00 | 0.00 | 85 | 1022.8 |
| 20260903021035 | 61 | 202 | 0.0 | 0.0 | 0.00 | 0.00 | 0.00 | 85 | 1022.8 |
| 20260903020134 | 62 | 202 | 0.0 | 0.0 | 0.00 | 0.00 | 0.00 | 85 | 1023.0 |
| 20260903015152 | 62 | 202 | 0.0 | 0.0 | 0.00 | 0.00 | 0.00 | 83 | 1023.1 |
| 20260903014235 | 62 | 202 | 0.0 | 0.0 | 0.00 | 0.00 | 0.00 | 82 | 1022.9 |
| 20260903012236 | 62 | 202 | 0.0 | 0.0 | 0.00 | 0.00 | 0.00 | 82 | 1023.1 |
| 20260903011334 | 63 | 202 | 1.0 | 2.0 | 0.00 | 0.00 | 0.00 | 82 | 1023.2 |
| 20260903011250 | 63 | 209 | 2.0 | 3.0 | 0.00 | 0.00 | 0.00 | 82 | 1023.2 |
| 20260903011133 | 63 | 206 | 1.0 | 2.0 | 0.00 | 0.00 | 0.00 | 82 | 1023.1 |
| 20260903010136 | 63 | 157 | 0.0 | 0.0 | 0.00 | 0.00 | 0.00 | 82 | 1022.9 |
| 20260903010037 | 63 | 157 | 0.0 | 1.0 | 0.00 | 0.00 | 0.00 | 81 | 1022.9 |
| 20260903005034 | 63 | 144 | 2.0 | 5.0 | 0.00 | 0.00 | 0.00 | 82 | 1022.4 |
| 20260903004035 | 62 | 137 | 3.0 | 7.0 | 0.00 | 0.00 | 0.00 | 84 | 1022.4 |
| 20260903003038 | 62 | 135 | 0.0 | 0.0 | 0.00 | 0.00 | 0.00 | 87 | 1022.4 |
| 20260903002036 | 63 | 157 | 0.0 | 1.0 | 0.00 | 0.00 | 0.00 | 86 | 1022.4 |
| 20260903001036 | 63 | 180 | 0.0 | 2.0 | 0.00 | 0.00 | 0.00 | 86 | 1022.6 |
| 20260902235035 | 63 | 157 | 0.0 | 0.0 | 0.00 | 0.00 | 0.00 | 86 | 1022.8 |
| 20260902233037 | 64 | 157 | 0.0 | 0.0 | 0.00 | 0.00 | 0.00 | 85 | 1023.1 |
| 20260902232034 | 64 | 157 | 0.0 | 0.0 | 0.00 | 0.00 | 0.00 | 84 | 1023.3 |
| 20260902231051 | 64 | 157 | 0.0 | 0.0 | 0.00 | 0.01 | 0.00 | 83 | 1023.6 |
| 20260902230134 | 65 | 157 | 0.0 | 0.0 | 0.00 | 0.01 | 0.00 | 84 | 1023.8 |
| 20260902225150 | 65 | 157 | 0.0 | 0.0 | 0.00 | 0.01 | 0.00 | 84 | 1023.8 |
| 20260902224234 | 65 | 157 | 0.0 | 0.0 | 0.00 | 0.01 | 0.00 | 83 | 1023.9 |
| 20260902223235 | 65 | 157 | 0.0 | 0.0 | 0.00 | 0.01 | 0.00 | 82 | 1023.8 |
| 20260902222235 | 65 | 157 | 0.0 | 1.0 | 0.00 | 0.01 | 0.00 | 81 | 1023.8 |
| 20260902221332 | 66 | 157 | 0.0 | 1.0 | 0.00 | 0.01 | 0.00 | 80 | 1023.9 |
| 20260902220336 | 66 | 157 | 1.0 | 2.0 | 0.00 | 0.01 | 0.00 | 79 | 1024.0 |
| 20260902215335 | 66 | 157 | 0.0 | 3.0 | 0.00 | 0.01 | 0.00 | 80 | 1023.8 |
| 20260902214335 | 66 | 143 | 2.0 | 5.0 | 0.00 | 0.01 | 0.00 | 80 | 1023.9 |
| 20260902213334 | 66 | 135 | 2.0 | 3.0 | 0.00 | 0.01 | 0.00 | 80 | 1023.9 |
| 20260902213251 | 66 | 135 | 3.0 | 6.0 | 0.00 | 0.01 | 0.00 | 80 | 1023.9 |
| 20260902212235 | 67 | 135 | 0.0 | 1.0 | 0.00 | 0.01 | 0.00 | 79 | 1023.7 |
| 20260902211235 | 67 | 146 | 2.0 | 4.0 | 0.00 | 0.02 | 0.00 | 79 | 1023.7 |
| 20260902205233 | 67 | 135 | 0.0 | 0.0 | 0.00 | 0.02 | 0.00 | 81 | 1023.7 |
| 20260902204233 | 67 | 157 | 0.0 | 2.0 | 0.00 | 0.02 | 0.00 | 80 | 1023.5 |
| 20260902203236 | 68 | 157 | 0.0 | 5.0 | 0.00 | 0.02 | 0.00 | 80 | 1023.8 |
| 20260902201233 | 67 | 168 | 1.0 | 4.0 | 0.00 | 0.03 | 0.00 | 80 | 1024.0 |
| 20260902201135 | 67 | 135 | 0.0 | 0.0 | 0.00 | 0.03 | 0.00 | 80 | 1023.9 |
| 20260902200136 | 68 | 157 | 0.0 | 3.0 | 0.00 | 0.04 | 0.00 | 82 | 1023.8 |
| 20260902195233 | 67 | 135 | 1.0 | 2.0 | 0.00 | 0.04 | 0.00 | 82 | 1024.1 |
| 20260902194135 | 67 | 112 | 0.0 | 0.0 | 0.00 | 0.06 | 0.00 | 82 | 1024.0 |
| 20260902193134 | 68 | 130 | 4.0 | 7.0 | 0.00 | 0.06 | 0.00 | 83 | 1024.1 |
| 20260902192133 | 67 | 157 | 0.0 | 1.0 | 0.00 | 0.08 | 0.00 | 83 | 1024.3 |
| 20260902191133 | 67 | 144 | 3.0 | 4.0 | 0.00 | 0.09 | 0.00 | 84 | 1024.3 |
| 20260902190151 | 67 | 157 | 1.0 | 3.0 | 0.00 | 0.09 | 0.00 | 84 | 1024.6 |
| 20260902185233 | 67 | 180 | 0.0 | 0.0 | 0.00 | 0.09 | 0.00 | 82 | 1024.8 |
| 20260902184233 | 67 | 135 | 0.0 | 0.0 | 0.00 | 0.09 | 0.00 | 82 | 1024.6 |
| 20260902184133 | 67 | 135 | 0.0 | 1.0 | 0.00 | 0.09 | 0.00 | 83 | 1024.6 |
| 20260902183232 | 67 | 157 | 0.0 | 0.0 | 0.00 | 0.10 | 0.00 | 82 | 1024.6 |
| 20260902182234 | 67 | 157 | 0.0 | 2.0 | 0.00 | 0.10 | 0.00 | 83 | 1024.5 |
| 20260902181236 | 67 | 157 | 0.0 | 1.0 | 0.00 | 0.10 | 0.00 | 83 | 1024.5 |
| 20260902180333 | 66 | 157 | 2.0 | 5.0 | 0.00 | 0.10 | 0.00 | 83 | 1024.4 |
| 20260902174333 | 66 | 157 | 1.0 | 2.0 | 0.00 | 0.11 | 0.00 | 84 | 1024.8 |
| 20260902172349 | 66 | 157 | 1.0 | 3.0 | 0.00 | 0.11 | 0.00 | 85 | 1025.0 |
| 20260902171436 | 66 | 157 | 0.0 | 1.0 | 0.00 | 0.12 | 0.00 | 85 | 1024.9 |
| 20260902170533 | 66 | 157 | 0.0 | 1.0 | 0.00 | 0.12 | 0.00 | 84 | 1024.8 |
| 20260902170450 | 66 | 157 | 3.0 | 4.0 | 0.00 | 0.12 | 0.00 | 84 | 1024.8 |
| 20260902165535 | 66 | 157 | 1.0 | 2.0 | 0.00 | 0.12 | 0.00 | 84 | 1024.9 |
| 20260902164535 | 66 | 180 | 0.0 | 1.0 | 0.00 | 0.12 | 0.00 | 83 | 1025.1 |
| 20260902164433 | 66 | 180 | 2.0 | 3.0 | 0.00 | 0.12 | 0.00 | 84 | 1025.1 |
| 20260902163433 | 66 | 157 | 0.0 | 0.0 | 0.00 | 0.12 | 0.00 | 84 | 1025.0 |
| 20260902162335 | 66 | 180 | 0.0 | 2.0 | 0.00 | 0.13 | 0.00 | 85 | 1025.0 |
| 20260902161434 | 65 | 157 | 0.0 | 0.0 | 0.00 | 0.13 | 0.00 | 87 | 1025.2 |
| 20260902160533 | 65 | 157 | 1.0 | 3.0 | 0.00 | 0.13 | 0.00 | 86 | 1025.5 |
| 20260902155535 | 65 | 157 | 0.0 | 1.0 | 0.00 | 0.14 | 0.00 | 87 | 1025.8 |
| 20260902154451 | 65 | 157 | 1.0 | 3.0 | 0.00 | 0.14 | 0.00 | 87 | 1025.6 |
| 20260902153534 | 65 | 157 | 0.0 | 0.0 | 0.00 | 0.14 | 0.00 | 88 | 1025.8 |
| 20260902152535 | 65 | 157 | 1.0 | 5.0 | 0.00 | 0.14 | 0.00 | 88 | 1025.9 |
| 20260902151633 | 65 | 180 | 0.0 | 0.0 | 0.00 | 0.14 | 0.00 | 89 | 1026.1 |
| 20260902151537 | 65 | 180 | 0.0 | 0.0 | 0.00 | 0.14 | 0.00 | 88 | 1026.0 |
| 20260902150534 | 64 | 135 | 0.0 | 0.0 | 0.00 | 0.14 | 0.00 | 89 | 1025.9 |
| 20260902145533 | 64 | 180 | 0.0 | 0.0 | 0.00 | 0.14 | 0.00 | 89 | 1025.8 |
| 20260902144536 | 64 | 157 | 3.0 | 5.0 | 0.00 | 0.14 | 0.00 | 90 | 1025.9 |
| 20260902143536 | 65 | 135 | 0.0 | 1.0 | 0.00 | 0.14 | 0.00 | 88 | 1026.0 |
| 20260902142534 | 63 | 157 | 0.0 | 0.0 | 0.00 | 0.14 | 0.00 | 88 | 1025.9 |
| 20260902141536 | 63 | 157 | 1.0 | 2.0 | 0.00 | 0.14 | 0.00 | 87 | 1025.8 |
| 20260902135534 | 63 | 174 | 1.0 | 3.0 | 0.00 | 0.14 | 0.00 | 86 | 1025.6 |
| 20260902134536 | 62 | 157 | 0.0 | 0.0 | 0.00 | 0.14 | 0.00 | 85 | 1025.6 |
| 20260902132649 | 61 | 166 | 2.0 | 4.0 | 0.00 | 0.14 | 0.00 | 84 | 1025.2 |
| 20260902131633 | 61 | 161 | 4.0 | 8.0 | 0.00 | 0.14 | 0.00 | 83 | 1025.3 |
| 20260902130633 | 61 | 157 | 1.0 | 3.0 | 0.00 | 0.14 | 0.00 | 84 | 1025.5 |
| 20260902120734 | 60 | 157 | 0.0 | 0.0 | 0.00 | 0.25 | 0.00 | 84 | 1025.7 |
| 20260902115734 | 60 | 157 | 0.0 | 0.0 | 0.00 | 0.31 | 0.00 | 85 | 1025.7 |
| 20260902114734 | 59 | 157 | 0.0 | 0.0 | 0.00 | 0.34 | 0.00 | 85 | 1025.7 |
| 20260902113832 | 59 | 157 | 0.0 | 0.0 | 0.00 | 0.38 | 0.00 | 85 | 1025.7 |
| 20260902112835 | 59 | 157 | 0.0 | 0.0 | 0.00 | 0.44 | 0.00 | 85 | 1025.9 |
| 20260902105833 | 59 | 157 | 0.0 | 0.0 | 0.00 | 0.46 | 0.00 | 85 | 1025.6 |
| 20260902105749 | 59 | 157 | 0.0 | 0.0 | 0.00 | 0.46 | 0.00 | 85 | 1025.5 |
| 20260902104832 | 59 | 157 | 0.0 | 0.0 | 0.00 | 0.46 | 0.00 | 84 | 1025.4 |
| 20260902102835 | 59 | 157 | 0.0 | 0.0 | 0.00 | 0.46 | 0.00 | 85 | 1025.4 |
| 20260902101735 | 59 | 157 | 0.0 | 0.0 | 0.00 | 0.46 | 0.00 | 84 | 1025.1 |
| 20260902100733 | 59 | 157 | 0.0 | 0.0 | 0.00 | 0.46 | 0.00 | 85 | 1025.1 |
| 20260902095734 | 59 | 157 | 0.0 | 0.0 | 0.00 | 0.46 | 0.00 | 85 | 1025.1 |
| 20260902095631 | 59 | 157 | 0.0 | 0.0 | 0.00 | 0.46 | 0.00 | 84 | 1025.0 |
| 20260902094633 | 59 | 157 | 0.0 | 0.0 | 0.00 | 0.46 | 0.00 | 84 | 1025.2 |
| 20260902093633 | 59 | 157 | 0.0 | 0.0 | 0.00 | 0.46 | 0.00 | 85 | 1025.1 |
| 20260902092637 | 59 | 157 | 0.0 | 0.0 | 0.00 | 0.46 | 0.00 | 84 | 1024.9 |
| 20260902092535 | 59 | 157 | 0.0 | 0.0 | 0.00 | 0.46 | 0.00 | 84 | 1025.0 |
| 20260902085632 | 59 | 157 | 0.0 | 0.0 | 0.00 | 0.46 | 0.00 | 85 | 1024.6 |
| 20260902084632 | 59 | 157 | 0.0 | 0.0 | 0.00 | 0.46 | 0.00 | 85 | 1024.8 |
| 20260902084535 | 59 | 157 | 0.0 | 0.0 | 0.00 | 0.46 | 0.00 | 84 | 1024.7 |
| 20260902083631 | 59 | 157 | 0.0 | 0.0 | 0.00 | 0.46 | 0.00 | 84 | 1024.8 |
| 20260902081632 | 59 | 157 | 0.0 | 0.0 | 0.00 | 0.46 | 0.00 | 84 | 1024.7 |
| 20260902081535 | 59 | 157 | 0.0 | 0.0 | 0.00 | 0.46 | 0.00 | 84 | 1024.7 |
| 20260902080550 | 59 | 157 | 0.0 | 0.0 | 0.00 | 0.46 | 0.00 | 83 | 1024.7 |
| 20260902075531 | 60 | 157 | 0.0 | 0.0 | 0.00 | 0.46 | 0.00 | 83 | 1024.7 |
| 20260902074534 | 60 | 157 | 0.0 | 0.0 | 0.00 | 0.46 | 0.00 | 84 | 1024.8 |
| 20260902073533 | 60 | 157 | 0.0 | 0.0 | 0.00 | 0.46 | 0.00 | 84 | 1024.8 |
| 20260902073434 | 60 | 157 | 0.0 | 0.0 | 0.00 | 0.46 | 0.00 | 83 | 1024.8 |
| 20260902072434 | 60 | 157 | 0.0 | 0.0 | 0.00 | 0.46 | 0.00 | 83 | 1024.9 |
| 20260902070436 | 60 | 157 | 0.0 | 0.0 | 0.00 | 0.46 | 0.00 | 84 | 1025.0 |
| 20260902065450 | 60 | 157 | 0.0 | 0.0 | 0.00 | 0.46 | 0.00 | 84 | 1025.0 |
| 20260902064536 | 60 | 157 | 0.0 | 0.0 | 0.00 | 0.46 | 0.00 | 84 | 1024.8 |
| 20260902064449 | 60 | 157 | 0.0 | 0.0 | 0.00 | 0.46 | 0.00 | 83 | 1024.8 |
| 20260902063532 | 60 | 157 | 0.0 | 0.0 | 0.00 | 0.46 | 0.00 | 84 | 1024.7 |
| 20260902062533 | 60 | 157 | 0.0 | 0.0 | 0.00 | 0.46 | 0.00 | 84 | 1024.5 |
| 20260902062434 | 60 | 157 | 0.0 | 0.0 | 0.00 | 0.46 | 0.00 | 84 | 1024.4 |
| 20260902055435 | 60 | 157 | 0.0 | 0.0 | 0.00 | 0.46 | 0.00 | 84 | 1024.8 |
| 20260902054434 | 60 | 157 | 0.0 | 0.0 | 0.00 | 0.46 | 0.00 | 84 | 1024.5 |
| 20260902053433 | 60 | 157 | 0.0 | 0.0 | 0.00 | 0.46 | 0.00 | 84 | 1024.5 |
| 20260902052432 | 60 | 157 | 0.0 | 0.0 | 0.00 | 0.46 | 0.00 | 84 | 1024.5 |
| 20260902051432 | 60 | 157 | 0.0 | 0.0 | 0.00 | 0.46 | 0.00 | 83 | 1024.3 |
| 20260902050435 | 60 | 157 | 0.0 | 0.0 | 0.00 | 0.46 | 0.00 | 84 | 1024.3 |
| 20260902045533 | 60 | 157 | 0.0 | 0.0 | 0.00 | 0.46 | 0.00 | 84 | 1024.1 |
| 20260902044532 | 60 | 157 | 0.0 | 0.0 | 0.00 | 0.46 | 0.00 | 84 | 1023.9 |
| 20260902043535 | 60 | 157 | 0.0 | 0.0 | 0.00 | 0.46 | 0.00 | 83 | 1023.8 |
| 20260902043449 | 60 | 157 | 0.0 | 0.0 | 0.00 | 0.46 | 0.00 | 83 | 1023.9 |
| 20260902042435 | 60 | 157 | 0.0 | 0.0 | 0.00 | 0.46 | 0.00 | 84 | 1023.7 |
| 20260902041434 | 60 | 157 | 0.0 | 0.0 | 0.00 | 0.46 | 0.00 | 84 | 1023.6 |